Probability
0 0 0 0 0 0 0 0 0 0 0 0 0 0 0 0 0 0 0 0 0 0 0 0 0 0 0 0 0 0 0 0 0 0 0 0 0 0
0 0 0 0 0 0 0 0 0 0 0 0 0 0 0 0 0 0 0 0 0 0 0 0 0 0 0 0 0 0 0 0 0 0 0 0 0 0
0 0 0 0 0 0 0 0 0 0 0 0 0 0 0 0 0 0 0 0 0 0 0 0 0 0 0 0 0 0 0 0 0 0 0 0 0 0
0 0 0 0 0 0 0 0 0 0 0 0 0 0 0 0 0 0 0 0 0 0 0 0 0 0 0 0 0 0 0 0 0 0 0 0 0 0
0 0 0 0 0 0 0 0 0 0 0 0 0 0 0 0 0 0 0 0 0 0 0 0 0 0 0 0 0 0 0 0 0 0 0 0 0 0
0 0 0 0 0 0 0 0 0 0 0 0 0 0 0 0 0 0 0 0 0 0 0 0 0 0 0 0 0 0 0 0 0 0 0 0 0 0
0 0 0 0 0 0 0 0 0 0 0 0 0 0 0 0 0 0 0 0 0 0 0 0 0 0 0 0 0 0 0 0 0 0 0 0 0 0
0 0 0 0 0 0 0 0 0 0 0 0 0 0 0 0 0 0 0 0 0 0 0 0 0 0 0 0 0 0 0 0 0 0 0 0 0 0
0 0 0 0 0 0 0 0 0 0 0 0 0 0 0 0 0 0 0 0 0 0 0 0 0 0 0 0 0 0 0 0 0 0 0 0 0 0
0 0 0 0 0 0 0 0 0 0 0 0 0 0 0 0 0 0 0 0 0 0 0 0 0 0 0 0 0 0 0 0 0 0 0 0 0 0
0 0 0 0 0 0 0 0 0 0 0 0 0 0 0 0 0 0 0 0 0 0 0 0 0 0 0 0 0 0 0 0 0 0 0 0 0 0
0 0 0 0 0 0 0 0 0 0 0 0 0 0 0 0 0 0 0 0 0 0 0 0 0 0 0 0 0 0 0 0 0 0 0 0 0 0
0 0 0 0 0 0 0 0 0 0 0 0 0 0 0 0 0 0 0 0 0 0 0 0 0 0 0 0 0 0 0 0 0 0 0 0 0 0
0 0 0 0 0 0 0 0 0 0 0 0 0 0 0 0 0 0 0 0 0 0 0 0 0 0 0 0 0 0 0 0 0 0 0 0 0 0
0 0 0 0 0 0 0 0 0 0 0 0 0 0 0 0 0 0 0 0 0 0 0 0 0 0 0 0 0 0 0 0 0 0 0 0 0 0
0 0 0 0 0 0 0 0 0 0 0 0 0 0 0 0 0 0 0 0 0 0 0 0 0 0 0 0 0 0 0 0 0 0 0 0 0 0
0 0 0 0 0 0 0 0 0 0 0 0 0 0 0 0 0 0 0 0 0 0 0 0 0 0 0 0 0 0 0 0 0 0 0 0 0 0
0 0 0 0 0 0 0 0 0 0 0 0 0 0 0 0 0 0 0 0 0 0 0 0 0 0 0 0 0 0 0 0 0 0 0 0 0 0
0 0 0 0 0 0 0 0 0 0 0 0 0 0 0 0 0 0 0 0 0 0 0 0 0 0 0 0 0 0 0 0 0 0 0 0 0 0
0 0 0 0 0 0 0 0 0 0 0 0 0 0 0 0 0 0 0 0 0 0 0 0 0 0 0 0 0 0 0 0 0 0 0 0 0 0
0 0 0 0 0 0 0 0 0 0 0 0 0 0 0 0 0 0 0 0 0 0 0 0 0 0 0 0 0 0 0 0 0 0 0 0 0 0
0 0 0 0 0 0 0 0 0 0 0 0 0 0 0 0 0 0 0 0 0 0 0 0 0 0 0 0 0 0 0 0 0 0 0 0 0 0
0 0 0 0 0 0 0 0 0 0 0 0 0 0 0 0 0 0 0 0 0 0 0 0 0 0 0 0 0 0 0 0 0 0 0 0 0 0
Wind_Speed
4 4 3 2 2 1 1 1 1 1 3 4 3 4 4 3 5 3 4 10 13 13 13 15 17 18 19 20 20 21 21 21 21 22 22 22 22 23
3 4 3 2 2 2 1 1 2 2 3 3 3 4 5 6 10 6 6 15 15 15 15 15 16 17 19 21 21 21 21 22 22 22 23 23 23 23
4 4 3 2 2 2 1 1 0 1 3 4 3 4 5 6 8 6 7 6 7 15 17 17 17 17 19 20 20 20 21 22 22 23 23 23 23 22
4 4 4 3 3 2 2 2 2 2 2 4 4 4 5 7 7 7 8 7 6 13 17 18 18 18 17 16 17 17 18 19 21 22 23 23 23 22
4 4 4 4 4 3 3 3 3 3 2 3 5 4 4 5 6 7 8 7 8 10 13 16 18 18 17 17 17 16 16 17 18 20 21 22 23 22
5 4 4 4 4 4 4 4 3 4 4 4 5 5 5 6 4 5 7 5 7 9 12 13 15 17 18 18 18 18 17 16 16 17 18 19 20 20
6 5 5 7 6 3 2 3 3 3 4 5 6 6 6 5 5 5 7 7 7 6 5 6 7 7 9 14 16 18 17 16 16 15 15 16 16 17
6 6 6 5 7 7 8 9 8 6 6 5 6 7 8 7 6 6 6 6 5 3 3 7 6 7 7 6 13 16 16 16 15 14 14 14 14 15
5 5 5 5 5 4 8 12 11 14 12 7 7 9 8 8 7 8 7 6 7 5 4 7 5 7 7 8 14 14 14 14 13 13 12 12 12 13
6 6 5 5 4 5 6 8 8 9 10 7 7 9 9 8 8 7 7 6 6 6 4 5 5 5 7 6 11 13 13 12 12 11 11 11 11 12
7 6 6 5 8 9 7 8 10 10 10 11 11 12 14 14 9 4 4 5 6 5 3 3 4 5 6 6 7 11 12 12 12 12 11 11 10 10
6 7 9 9 12 12 7 7 9 10 9 10 10 9 8 8 8 4 4 5 5 4 3 3 3 4 5 4 4 5 6 9 11 11 11 10 9 5
5 6 7 12 15 15 11 6 9 10 8 7 7 6 5 5 5 5 4 4 5 5 4 3 3 3 4 4 4 5 5 5 5 5 7 8 7 6
5 6 8 14 16 15 10 9 12 9 4 4 4 4 4 4 5 5 6 5 5 6 6 5 3 4 4 4 4 4 5 4 3 3 3 3 2 5
5 11 14 15 13 9 10 13 10 4 4 4 4 4 4 4 5 5 5 5 6 6 5 4 4 4 4 3 4 4 4 4 3 3 2 2 0 0
7 10 13 11 9 8 9 7 5 4 3 3 3 4 4 4 3 3 3 4 4 5 6 6 5 3 3 4 4 5 5 4 4 3 2 2 2 1
7 5 4 5 7 7 7 6 5 4 3 3 3 3 3 3 3 3 3 3 4 5 6 6 6 3 1 3 4 5 5 4 4 4 3 3 4 4
5 3 5 6 6 7 7 6 5 4 3 3 3 3 3 3 4 3 3 3 4 4 5 5 6 5 3 1 4 6 5 4 4 4 4 3 4 5
3 4 5 6 6 6 6 5 4 5 4 3 3 4 4 3 3 3 3 3 4 4 4 4 4 5 5 5 5 8 6 4 4 4 4 4 3 4
3 5 6 6 6 6 6 5 5 5 4 4 4 4 4 3 3 3 3 3 3 4 4 4 4 5 4 4 4 5 10 6 4 4 3 2 2 2
5 5 5 6 6 6 6 5 5 5 5 5 4 4 4 3 3 3 3 4 3 3 4 5 5 7 4 3 3 4 5 8 8 5 4 3 3 4
5 5 6 6 6 6 6 6 6 5 6 5 5 5 4 3 3 4 3 2 2 2 3 3 4 4 4 5 5 5 5 5 6 10 12 9 3 3
5 5 5 6 6 6 6 7 7 6 5 5 6 6 5 4 3 2 2 2 2 2 3 3 4 4 4 4 4 5 7 7 5 6 7 11 11 10
Wind_Direction
49 49 45 23 31 49 92 134 143 297 295 299 313 318 324 315 313 309 297 300 302 294 286 280 279 280 282 283 282 280 277 275 274 273 272 271 270 270
45 45 31 12 16 17 33 77 153 181 251 276 273 286 305 318 317 310 290 305 304 299 293 287 282 282 283 282 281 280 278 275 274 272 271 270 268 267
30 34 17 6 6 353 357 352 278 188 242 272 268 282 296 303 309 302 297 289 288 298 297 292 288 286 286 285 283 282 280 277 274 273 271 270 268 267
10 8 347 343 340 321 312 302 288 263 236 281 286 291 291 293 292 297 300 300 291 294 292 291 290 290 289 286 284 281 278 275 273 271 270 268 267 265
349 342 326 327 312 297 290 286 282 289 266 272 286 285 286 291 298 295 292 290 292 294 293 291 291 293 291 290 286 281 276 271 268 267 267 266 264 261
336 328 319 305 286 284 284 282 282 292 291 289 288 290 285 285 284 290 297 288 289 294 291 290 291 294 292 291 289 286 281 274 267 264 263 261 258 256
330 325 317 320 331 318 303 288 287 285 290 289 289 291 291 296 293 282 290 293 288 277 279 285 287 283 285 286 287 286 284 281 275 267 262 256 250 248
325 322 316 321 335 343 343 331 317 299 287 280 285 287 289 287 285 285 288 296 293 275 277 288 282 279 278 270 277 281 282 283 279 273 268 259 249 243
324 318 322 328 337 329 322 320 312 303 293 281 278 280 283 285 284 287 282 280 281 281 286 286 283 281 280 282 284 284 286 286 284 279 271 263 254 245
323 317 315 311 307 310 307 306 299 294 288 282 263 271 278 279 274 276 278 280 275 273 258 274 281 279 286 284 285 286 287 289 289 286 278 267 256 248
321 323 320 307 299 309 308 303 303 300 297 287 281 283 286 288 286 280 286 290 296 292 263 251 273 284 285 283 285 288 290 290 290 286 280 271 258 247
318 315 316 311 308 310 301 291 295 297 304 310 308 307 304 303 306 283 274 289 295 292 273 269 272 289 288 274 274 282 287 286 288 286 280 272 256 235
313 313 310 313 313 311 306 280 276 287 296 297 301 306 311 311 308 302 283 268 286 284 281 284 276 266 268 288 285 281 286 290 294 289 288 278 252 214
303 303 305 311 315 316 315 307 309 312 303 310 315 314 315 313 309 309 306 298 277 274 286 292 280 288 293 290 293 300 303 299 297 296 301 300 263 218
300 308 313 316 320 320 317 318 321 321 320 322 317 305 295 297 307 316 318 319 315 306 307 304 298 296 301 298 302 301 305 309 322 324 331 343 1 180
320 316 316 318 325 320 319 322 320 313 307 304 301 300 309 322 323 319 317 324 327 321 318 322 321 315 319 312 310 318 319 320 333 344 355 13 18 23
315 315 328 335 339 336 333 328 325 333 333 319 315 319 322 327 318 317 319 324 330 330 334 335 333 322 283 340 332 336 339 344 350 354 10 30 28 23
329 327 329 331 329 328 329 326 322 324 320 315 315 316 314 317 320 323 331 334 335 336 340 339 342 344 335 320 8 346 346 350 357 7 16 32 27 18
354 335 330 327 326 326 326 323 316 316 316 319 315 312 311 312 315 320 329 335 335 336 337 340 348 352 358 359 350 6 359 352 1 17 24 29 23 10
343 331 328 326 326 328 328 326 323 327 332 328 321 317 315 310 312 318 323 328 331 337 345 349 355 355 353 342 335 347 8 9 3 8 4 4 9 351
332 329 326 326 329 331 331 331 332 330 332 330 325 321 317 315 312 313 320 331 337 342 350 348 342 346 343 349 6 4 6 21 34 25 353 354 1 4
327 329 330 333 335 335 337 339 339 339 339 335 329 326 321 311 304 310 319 327 331 334 338 335 341 359 13 20 20 12 11 11 25 41 42 40 31 17
330 332 335 339 342 342 343 342 342 337 336 334 332 329 329 327 319 316 320 326 336 345 351 353 356 5 12 15 18 19 20 19 19 31 36 34 51 58